Flag for Germany Weather past 2 weeks in Hanau, Hesse, Germany

Now
84 °F

Passing clouds.


Feels Like: 81 °F
Forecast: 59 / 92 °F
Wind: 6 mph from Northwest

Location: Frankfurt-M-Flughafen Airport

Current Time: Jul 6, 2015 at 7:51:34 PM

Latest Report: Jul 6, 2015 at 7:20 PM


Visibility: N/A

Pressure: 30.07 "Hg

Humidity: 20%

Dew point: 39 °F

Location of HanauLocation

Historic Weather in Hanau — Graph

°F

Hanau temperature yesterday

Maximum temperature yesterday: 100 °F (at 3:20 PM)
Minimum temperature yesterday: 72 °F (at 5:20 AM)
Average temperature yesterday: 85 °F

Past Weeks' High & Low Weather Summary

 TemperatureHumidityPressure
High100 °F (Jul 4, 4:50 PM)100% (Jun 21, 11:50 PM)30.21 "Hg (Jun 21, 11:50 PM)
Low48 °F (Jun 23, 4:50 AM)20% (Jun 30, 4:50 PM)29.68 "Hg (Jun 22, 10:50 PM)
Average71 °F61%30.08 "Hg
* Reported Jun 21 6:20 PM — Jul 6 6:20 PM, Hanau, Weather by CustomWeather, © 2015

Note: Actual official high and low records may vary slightly from our data, if they occured in-between our weather recording intervals... More about our weather records

Advertising

Hanau weather history for previous 24 hours

 ConditionsComfort  
Time TempWeatherWind HumidityBarometerVisibility
6:20 PM
Mon, Jul 6
82 °FSunny.5 mph20%30.07 "Hg10 mi
5:50 PM82 °FSunny.8 mph21%30.09 "Hg10 mi
5:20 PM82 °FSunny.7 mph21%30.09 "Hg10 mi
4:50 PM82 °FPassing clouds.6 mph21%30.09 "HgN/A
4:20 PM82 °FPassing clouds.10 mph21%30.12 "HgN/A
3:50 PM82 °FSunny.8 mph21%30.12 "Hg10 mi
3:20 PM81 °FPassing clouds.9 mph24%30.12 "HgN/A
2:50 PM81 °FPassing clouds.8 mph26%30.12 "HgN/A
2:20 PM79 °FPassing clouds.13 mph26%30.15 "HgN/A
1:50 PM77 °FPassing clouds.10 mph28%30.15 "HgN/A
1:20 PM77 °FPassing clouds.9 mph28%30.15 "HgN/A
12:50 PM75 °FPassing clouds.8 mph29%30.18 "HgN/A
12:20 PM75 °FPassing clouds.9 mph29%30.18 "HgN/A
11:50 AM75 °FPassing clouds.9 mph29%30.18 "HgN/A
11:20 AM75 °FPassing clouds.10 mph31%30.18 "HgN/A
10:50 AM73 °FPassing clouds.12 mph41%30.18 "HgN/A
10:20 AM73 °FPassing clouds.9 mph47%30.18 "HgN/A
9:50 AM72 °FPassing clouds.9 mph57%30.18 "HgN/A
9:20 AM70 °FPassing clouds.8 mph60%30.21 "HgN/A
8:50 AM70 °FPassing clouds.7 mph60%30.18 "HgN/A
8:20 AM68 °FPassing clouds.9 mph69%30.18 "HgN/A
7:50 AM68 °FPassing clouds.7 mph73%30.18 "HgN/A
7:20 AM64 °FPassing clouds.3 mph83%30.18 "HgN/A
6:50 AM63 °FPassing clouds.3 mph83%30.18 "HgN/A
6:20 AM63 °FPassing clouds.3 mph83%30.15 "HgN/A
5:50 AM63 °FClear.6 mph83%30.15 "Hg10 mi
5:20 AM61 °FClear.7 mph88%30.15 "Hg10 mi
4:50 AM64 °FClear.9 mph78%30.15 "Hg10 mi
4:20 AM64 °FClear.7 mph78%30.12 "Hg10 mi
3:50 AM64 °FClear.10 mph78%30.12 "Hg10 mi
3:20 AM66 °FPassing clouds.9 mph78%30.12 "HgN/A
2:50 AM66 °FPassing clouds.13 mph78%30.12 "HgN/A
2:20 AM68 °FPassing clouds.13 mph73%30.12 "HgN/A
1:50 AM70 °FClear.15 mph69%30.09 "Hg10 mi
1:20 AM70 °FPassing clouds.14 mph69%30.07 "HgN/A
12:50 AM70 °FClear.16 mph69%30.07 "Hg10 mi
12:20 AM72 °FClear.16 mph69%30.04 "Hg10 mi
11:50 PM
Sun, Jul 5
73 °FClear.17 mph69%30.01 "Hg10 mi
11:20 PM75 °FPassing clouds.16 mph65%29.98 "HgN/A
10:50 PM77 °FPassing clouds.9 mph61%29.98 "HgN/A
10:20 PM77 °FScattered clouds.12 mph61%29.95 "HgN/A
9:50 PM79 °FScattered clouds.13 mph61%29.92 "HgN/A
9:20 PM82 °FScattered clouds.13 mph55%29.89 "HgN/A
8:50 PM84 °FScattered clouds.20 mph48%29.86 "HgN/A
8:20 PM90 °FPassing clouds.20 mph41%29.86 "HgN/A
7:50 PM99 °FSunny.13 mph21%29.83 "Hg10 mi
7:20 PM99 °FSunny.14 mph22%29.83 "Hg10 mi
Weather by CustomWeather, © 2015

See weather overviewHow to use our weather pages